Weather History for Avoca, PA

Change the Weather History Date:

Friday, February 22, 2013

  Actual Average Record
Temperature  
Mean Temperature 27 °F 30 °F  
Max Temperature 37 °F 39 °F 62 °F (1997)
Min Temperature 17 °F 22 °F -1 °F (1963)
Degree Days  
Heating Degree Days 38 35  
Month to date heating degree days 834 811  
Since 1 July heating degree days 4051 4402  
Cooling Degree Days 0 0  
Month to date cooling degree days 0 0  
Year to date cooling degree days 0 0  
Moisture  
Dew Point 18 °F    
Average Humidity 68    
Maximum Humidity 84    
Minimum Humidity 51    
Precipitation  
Precipitation T in 0.07 in 1.43 in (1902)
Month to date precipitation 0.69 1.61  
Year to date precipitation 2.71 3.98  
Sea Level Pressure  
Sea Level Pressure 30.29 in    
Wind  
Wind Speed 6 mph (SSE)    
Max Wind Speed 14 mph    
Max Gust Speed 22 mph    
Visibility 10 miles    
Events      
T = Trace of Precipitation, MM = Missing Value Source: NWS Daily Summary

Daily Weather History Graph

Daily Weather History Graph

Search for Another Location

Airport:

Trip Planner

Search our weather history database for the weather conditions in past years. The results will help you decide how hot, cold, wet, or windy it might be!

Date:

Astronomy

Feb. 22, 2013 Rise Set
Actual Time 6:47 AM EST 5:45 PM EST
Civil Twilight 6:19 AM EST 6:13 PM EST
Nautical Twilight 5:47 AM EST 6:45 PM EST
Astronomical Twilight 5:15 AM EST 7:17 PM EST
Moon 2:53 PM EST (2/22) 4:32 AM EST (2/22)
Length of Visible Light 11h 53m
Length of Day
10h 58m
Waxing Gibbous, 90% of the Moon is Illuminated
Feb 22
Waxing Gibbous
Feb 25
Full
Mar 4
Last Quarter
Mar 11
New
Mar 19
First Quarter

Hourly Weather History & Observations

Time (EST) Temp. Windchill Dew Point Humidity Pressure Visibility Wind Dir Wind Speed Gust Speed Precip Events Conditions
12:54 AM 19.9 °F 9.3 °F 12.9 °F 74% 30.35 in 10.0 mi NNE 9.2 mph - N/A   Overcast
1:54 AM 19.0 °F 12.3 °F 12.9 °F 77% 30.36 in 10.0 mi Variable 4.6 mph - N/A   Overcast
2:54 AM 19.0 °F 12.3 °F 12.9 °F 77% 30.37 in 10.0 mi Variable 4.6 mph - N/A   Overcast
3:54 AM 18.0 °F - 12.9 °F 81% 30.36 in 10.0 mi Calm Calm - N/A   Mostly Cloudy
4:42 AM 19.4 °F 12.8 °F 14.0 °F 80% 30.31 in 10.0 mi ENE 4.6 mph - N/A   Partly Cloudy
4:54 AM 19.0 °F 13.9 °F 14.0 °F 81% 30.35 in 10.0 mi ENE 3.5 mph - N/A   Partly Cloudy
5:54 AM 19.0 °F 11.1 °F 14.0 °F 81% 30.39 in 10.0 mi Variable 5.8 mph - N/A   Clear
6:54 AM 19.0 °F 13.9 °F 14.0 °F 81% 30.38 in 10.0 mi Variable 3.5 mph - N/A   Clear
7:54 AM 19.0 °F 10.0 °F 15.1 °F 85% 30.40 in 10.0 mi SSW 6.9 mph - N/A   Clear
8:54 AM 21.9 °F 15.7 °F 15.1 °F 75% 30.37 in 10.0 mi Variable 4.6 mph - N/A   Clear
9:54 AM 27.0 °F 19.5 °F 17.1 °F 66% 30.35 in 10.0 mi Variable 6.9 mph - N/A   Clear
10:54 AM 28.9 °F 22.8 °F 17.1 °F 61% 30.33 in 10.0 mi Variable 5.8 mph - N/A   Clear
11:54 AM 34.0 °F 27.2 °F 18.0 °F 52% 30.30 in 10.0 mi SSE 8.1 mph - N/A   Clear
12:54 PM 36.0 °F 29.0 °F 19.0 °F 50% 30.26 in 10.0 mi South 9.2 mph - N/A   Clear
1:54 PM 36.0 °F 29.0 °F 19.0 °F 50% 30.25 in 10.0 mi South 9.2 mph - N/A   Mostly Cloudy
2:54 PM 35.1 °F 27.9 °F 19.0 °F 52% 30.24 in 10.0 mi South 9.2 mph - N/A   Overcast
3:54 PM 34.0 °F 26.6 °F 19.0 °F 54% 30.25 in 10.0 mi South 9.2 mph - N/A   Overcast
4:54 PM 34.0 °F 26.6 °F 19.9 °F 56% 30.24 in 10.0 mi South 9.2 mph - N/A   Overcast
5:54 PM 33.1 °F 27.7 °F 21.0 °F 61% 30.25 in 10.0 mi Variable 5.8 mph - N/A   Overcast
6:54 PM 32.0 °F 25.6 °F 21.0 °F 64% 30.25 in 10.0 mi Variable 6.9 mph - N/A   Overcast
7:54 PM 32.0 °F 25.6 °F 21.0 °F 64% 30.26 in 10.0 mi South 6.9 mph 18.4 mph N/A   Overcast
8:54 PM 32.0 °F 25.6 °F 21.9 °F 66% 30.23 in 10.0 mi Variable 6.9 mph - N/A   Overcast
9:54 PM 32.0 °F 26.4 °F 21.9 °F 66% 30.22 in 10.0 mi Variable 5.8 mph - 0.00 in   Overcast
10:54 PM 32.0 °F 25.6 °F 23.0 °F 69% 30.22 in 10.0 mi Variable 6.9 mph - N/A   Overcast
11:02 PM 32.0 °F 26.4 °F 23.0 °F 69% 30.18 in 10.0 mi SSW 5.8 mph - N/A   Overcast
11:13 PM 32.0 °F 26.4 °F 24.8 °F 75% 30.18 in 10.0 mi Variable 5.8 mph - N/A   Overcast
11:54 PM 32.0 °F 26.4 °F 24.1 °F 73% 30.20 in 10.0 mi Variable 5.8 mph - N/A   Overcast